Temperature
14 14 14 14 14 14 14 14 14 14 15 15 15 15 15 15 14 14 14 14 14 13 13 13 13 13 13 13 14 14 14 14 14 14 14 14 14 14
14 14 14 14 14 14 14 14 14 14 14 14 14 14 14 14 14 14 14 14 14 13 13 13 13 13 13 13 13 13 13 14 14 14 14 14 14 14
14 14 14 14 14 13 14 14 14 14 14 14 14 14 14 14 14 14 14 14 14 13 13 13 13 13 13 13 13 13 13 13 13 13 13 13 14 14
14 14 14 14 14 14 14 14 14 14 14 14 14 14 14 14 14 14 14 14 14 13 13 13 13 13 13 13 13 13 13 13 13 13 13 13 13 13
14 14 14 14 14 14 14 14 14 14 14 14 14 14 14 14 14 14 14 14 14 14 13 13 13 13 13 13 13 13 13 13 13 13 13 13 13 13
14 14 14 14 14 14 14 14 14 14 14 14 14 14 14 14 14 14 14 14 14 14 14 14 14 13 13 13 13 13 13 13 13 13 13 13 13 12
14 14 14 14 14 14 14 14 14 14 14 14 14 14 14 14 14 14 14 14 14 14 14 14 14 14 13 13 13 13 13 13 13 13 13 13 12 12
14 14 14 14 14 14 14 14 13 13 13 13 13 14 14 14 13 13 13 13 13 14 14 14 14 14 14 14 13 13 13 13 13 13 13 13 13 12
14 14 14 14 14 14 14 14 13 13 13 13 13 13 13 13 13 13 13 12 13 13 12 13 14 14 14 14 13 13 13 13 13 13 13 13 13 12
13 13 13 13 13 13 13 13 13 13 13 13 13 13 13 13 12 12 12 12 12 13 12 12 13 13 13 13 13 13 13 13 13 13 13 13 13 12
13 13 13 13 13 13 12 13 13 13 12 12 12 12 12 12 12 11 11 11 11 12 12 11 12 12 12 13 13 13 13 13 13 13 13 13 12 12
12 12 12 12 12 12 12 12 12 12 12 12 11 11 11 11 11 11 10 10 10 10 11 11 11 11 10 12 12 12 12 12 12 12 12 12 12 12
11 11 11 11 11 11 11 11 10 10 11 11 11 10 10 10 10 10 10 10 9 9 10 10 10 10 9 9 10 11 11 11 12 12 12 12 12 11
10 10 10 10 10 9 9 9 9 9 9 9 9 9 9 9 9 9 9 9 9 9 9 9 9 9 8 8 9 9 10 11 11 11 11 11 11 11
9 9 9 9 9 8 8 8 8 8 8 8 8 8 8 8 8 8 8 8 8 8 8 8 8 8 8 8 8 8 8 9 10 10 10 10 11 11
8 8 8 8 7 7 7 7 7 7 7 7 7 7 7 7 7 7 7 7 8 8 8 8 8 7 7 7 7 7 8 8 9 9 9 9 10 10
7 7 7 7 7 7 7 6 6 6 6 6 6 6 6 6 6 6 6 6 6 6 6 7 7 7 7 7 7 7 7 8 8 8 9 9 9 9
6 6 6 6 6 6 5 5 5 5 5 5 5 4 4 4 4 5 5 5 5 5 5 5 6 6 6 7 7 7 7 7 7 8 8 8 8 9
5 5 5 4 4 4 4 4 4 4 4 3 3 3 3 3 3 3 4 4 4 4 4 4 4 4 4 5 6 6 6 6 7 7 7 8 8 8
4 3 3 3 3 3 2 2 2 3 3 3 3 3 3 3 3 3 3 3 3 3 3 4 4 4 4 4 5 5 6 6 6 6 7 7 7 8
3 2 2 2 2 2 2 2 2 2 2 2 2 2 2 2 2 2 2 3 3 3 3 3 4 4 4 4 4 5 5 6 6 6 6 6 7 7
2 2 1 1 1 1 1 1 1 1 1 1 1 1 2 2 2 2 2 2 2 2 2 3 3 4 4 4 4 4 5 5 6 6 6 6 6 6
1 1 1 1 1 1 1 1 1 1 1 1 1 1 1 1 2 2 2 2 2 2 2 3 3 3 4 4 4 4 5 5 5 6 6 7 7 7
Wind_Speed
3 3 2 1 2 2 2 3 4 2 2 2 2 2 3 4 6 6 8 9 9 10 10 10 10 10 10 10 10 10 11 11 11 11 12 12 13 14
3 4 3 2 2 2 2 2 2 3 3 2 2 2 3 4 5 7 9 11 12 13 13 14 14 14 14 14 13 13 13 13 13 13 13 13 14 14
4 5 5 4 3 3 2 2 3 3 3 3 2 2 3 3 4 5 8 9 11 14 15 16 16 16 16 16 15 15 16 15 15 15 14 14 15 15
7 6 6 5 5 4 4 4 4 4 4 4 3 3 4 4 4 4 6 8 9 13 15 17 17 17 18 17 17 17 17 18 17 17 17 16 16 16
8 8 8 7 7 5 5 5 5 5 5 4 4 3 3 3 3 4 5 6 8 11 14 16 17 18 19 19 19 19 19 19 19 19 19 19 19 18
9 9 9 9 9 8 7 7 6 6 5 5 5 5 5 4 3 5 5 5 5 7 10 12 14 16 17 18 19 19 20 20 20 21 21 21 21 20
8 8 9 10 11 9 7 7 7 6 6 6 6 5 5 4 5 4 6 7 6 5 6 7 8 9 12 15 17 19 20 21 22 22 22 23 23 23
7 7 6 7 8 9 10 9 9 8 8 6 6 7 9 7 6 5 5 6 6 3 3 6 5 8 10 12 16 19 21 21 22 23 23 24 24 24
5 4 4 3 3 4 6 7 8 9 9 7 9 10 9 7 6 7 7 8 9 6 5 10 8 10 11 15 19 22 23 24 24 24 24 24 24 25
3 3 3 2 2 2 3 4 5 6 7 7 9 10 9 8 7 8 9 9 9 8 6 8 10 11 11 13 18 23 25 26 26 26 25 25 25 25
0 1 1 1 2 2 2 4 6 6 6 8 10 11 12 12 9 6 6 7 9 9 6 6 8 10 10 11 15 20 24 25 25 25 25 25 25 23
1 2 2 2 3 3 2 4 6 7 5 6 6 8 8 9 9 8 8 8 8 7 5 5 7 6 7 7 8 11 13 18 22 24 24 24 24 16
2 2 3 5 5 5 3 3 6 7 6 5 5 6 6 5 5 6 7 7 9 9 6 5 7 8 9 9 9 10 10 11 12 14 19 22 23 17
2 2 3 6 6 6 4 4 6 4 3 3 4 5 6 6 6 7 8 9 11 12 12 10 9 11 12 14 13 10 10 11 11 12 12 15 18 21
2 4 5 6 5 4 5 6 4 3 3 3 4 5 6 7 7 7 8 8 10 12 13 12 11 11 12 14 15 14 13 12 12 13 13 12 12 11
4 4 5 5 4 4 4 4 4 3 3 4 5 6 6 6 7 7 8 8 8 9 10 12 11 12 12 14 14 14 14 12 11 12 13 13 12 12
3 3 4 4 5 5 5 5 5 5 5 5 6 6 7 7 7 7 7 7 8 10 11 9 10 10 13 13 14 14 14 14 14 13 12 14 14 13
4 4 4 5 5 5 6 6 6 6 6 7 7 7 7 8 9 8 8 9 10 11 11 11 10 10 10 10 13 15 14 14 13 13 13 14 16 14
5 4 5 5 6 6 6 6 7 7 7 7 7 8 8 8 8 9 9 9 10 11 12 11 10 10 13 15 11 11 13 13 13 13 13 14 15 15
5 5 5 5 6 6 6 7 7 7 7 7 8 8 8 9 9 10 10 11 12 13 13 11 11 11 12 14 14 14 14 15 14 14 14 13 14 14
5 5 5 6 6 7 7 7 8 8 9 8 8 9 9 9 10 10 11 13 13 12 13 13 13 14 13 11 12 13 13 14 15 14 13 13 13 13
6 6 6 7 7 7 7 8 8 8 9 8 9 9 9 10 11 13 12 12 12 12 14 14 13 12 11 12 15 16 16 14 13 16 18 16 12 11
6 7 7 7 7 7 7 8 10 9 9 9 9 9 10 11 11 11 12 13 13 13 13 13 12 11 11 12 13 14 17 15 11 11 11 13 18 20
Wind_Direction
180 179 178 188 179 175 163 159 155 182 256 282 288 296 273 252 248 240 245 250 255 259 260 261 264 266 267 268 267 266 265 264 263 263 263 260 258 256
187 186 193 195 187 178 174 176 171 171 215 255 263 287 293 279 260 245 252 261 264 266 265 264 264 264 265 265 265 264 263 262 261 262 264 264 263 261
200 201 210 192 193 193 184 180 185 177 210 257 252 269 269 270 276 261 259 260 265 267 266 265 263 262 262 263 263 262 260 259 258 258 260 262 262 262
212 209 220 208 208 204 197 203 205 201 208 241 252 251 252 260 266 269 267 262 261 268 268 265 263 262 262 261 260 259 257 256 255 255 255 256 257 258
214 214 221 212 221 219 214 217 219 214 211 229 253 246 257 258 265 268 267 266 267 266 267 265 263 262 262 261 260 257 255 253 252 252 252 253 254 255
221 221 221 216 223 224 224 226 225 223 219 232 253 259 259 255 246 264 277 266 268 272 264 263 261 263 262 261 259 257 255 253 252 251 250 251 251 252
229 228 229 226 225 223 227 229 223 228 231 240 254 264 264 256 256 255 271 283 277 255 263 261 258 261 263 263 260 257 255 255 254 252 250 249 249 250
231 236 236 238 238 233 234 230 219 226 235 240 252 257 265 263 265 263 270 280 285 249 245 273 259 264 263 260 258 258 257 256 255 253 251 249 248 248
220 226 236 239 228 243 247 244 238 234 231 236 252 258 265 262 262 267 261 260 266 268 267 281 273 268 266 262 256 256 256 257 256 254 252 250 249 247
209 207 216 246 275 262 262 263 263 258 249 242 248 258 263 267 257 261 268 269 268 266 246 268 275 272 274 267 259 254 254 255 255 254 253 251 249 248
123 144 196 267 320 300 271 277 285 284 272 259 259 267 273 274 270 269 266 265 275 275 234 245 270 275 276 271 265 256 253 254 254 254 253 251 249 248
53 40 35 1 342 343 287 284 289 293 302 304 293 289 283 281 271 249 253 261 269 274 245 233 266 275 280 266 264 266 262 258 255 254 252 251 249 246
40 23 15 12 358 347 331 280 278 291 297 296 297 298 299 292 285 268 252 251 261 263 263 252 269 270 267 277 276 271 266 268 265 260 254 250 246 234
29 8 360 5 4 359 356 328 318 319 314 315 313 310 310 306 302 295 282 269 260 264 271 266 267 271 274 277 278 274 268 265 264 264 262 254 247 237
25 16 13 13 9 7 1 353 351 358 345 326 311 305 303 301 302 301 296 289 280 272 270 267 267 271 269 271 275 276 277 273 263 261 261 258 255 247
14 13 18 20 23 11 0 2 4 350 332 313 304 302 305 307 307 307 302 304 299 294 285 277 272 271 272 272 272 274 273 270 266 263 262 262 258 249
6 20 21 14 11 6 359 354 352 349 340 327 315 311 309 307 305 307 299 298 291 293 297 296 288 278 270 271 272 269 269 269 268 267 264 265 261 252
44 29 14 7 360 352 346 341 339 338 333 325 317 312 309 307 305 304 298 294 293 293 293 295 297 297 290 275 248 265 270 271 272 268 263 263 265 260
36 19 5 354 348 343 337 331 325 323 320 316 312 310 306 304 302 301 301 298 295 294 293 292 288 285 287 288 279 245 264 274 274 271 264 259 262 264
17 3 352 343 337 331 325 322 319 318 315 313 310 306 305 304 303 301 300 298 297 297 296 292 284 280 278 282 287 284 259 263 271 271 271 267 264 265
358 350 342 335 329 324 319 316 313 311 310 309 307 306 306 305 301 299 297 295 293 292 292 291 289 285 283 281 279 279 277 256 252 263 270 269 268 265
344 337 333 329 326 321 318 316 314 312 312 310 308 307 306 302 299 298 297 296 293 290 290 290 292 291 285 281 282 285 287 285 268 254 252 250 257 261
337 333 329 328 326 322 321 319 316 312 312 311 309 308 306 303 300 296 293 292 291 292 294 295 295 291 286 283 284 284 285 288 287 283 272 254 246 251
Height
1554 1555 1556 1557 1558 1559 1559 1560 1561 1561 1561 1562 1562 1563 1563 1564 1564 1564 1564 1564 1563 1563 1562 1562 1561 1561 1560 1560 1561 1561 1561 1561 1561 1561 1562 1563 1563 1564
1553 1553 1554 1555 1556 1557 1557 1558 1558 1559 1559 1559 1560 1561 1561 1561 1561 1561 1561 1561 1561 1560 1559 1559 1558 1557 1557 1557 1557 1557 1557 1556 1556 1556 1557 1557 1558 1558
1550 1551 1552 1553 1554 1554 1555 1555 1556 1556 1556 1557 1557 1558 1558 1558 1558 1558 1558 1557 1557 1557 1556 1555 1555 1554 1553 1553 1553 1552 1552 1552 1552 1552 1552 1552 1552 1552
1548 1548 1549 1550 1551 1552 1552 1552 1553 1553 1554 1553 1554 1554 1554 1554 1554 1554 1554 1553 1553 1552 1552 1551 1550 1550 1549 1549 1548 1548 1547 1547 1547 1546 1546 1546 1546 1546
1545 1545 1546 1547 1548 1548 1549 1549 1550 1550 1550 1549 1549 1550 1550 1550 1549 1549 1549 1548 1548 1547 1547 1546 1546 1545 1544 1544 1543 1543 1542 1542 1541 1541 1541 1540 1540 1540
1541 1542 1542 1543 1544 1545 1545 1546 1546 1546 1546 1545 1545 1545 1545 1545 1545 1544 1543 1543 1542 1542 1541 1540 1540 1539 1539 1538 1538 1537 1537 1536 1536 1535 1535 1534 1534 1534
1536 1537 1538 1539 1539 1540 1541 1541 1541 1541 1541 1541 1540 1540 1539 1540 1539 1538 1537 1536 1535 1535 1534 1534 1533 1533 1532 1532 1531 1531 1530 1530 1529 1529 1528 1528 1527 1527
1531 1532 1533 1534 1534 1535 1535 1536 1536 1536 1536 1535 1535 1534 1534 1534 1533 1532 1531 1529 1527 1528 1527 1526 1526 1524 1524 1524 1524 1523 1523 1522 1521 1521 1520 1520 1520 1520
1526 1527 1528 1528 1529 1529 1529 1530 1530 1530 1530 1530 1529 1528 1528 1527 1527 1525 1524 1523 1521 1521 1519 1516 1517 1516 1516 1515 1515 1514 1514 1513 1513 1512 1512 1512 1512 1511
1520 1521 1522 1522 1522 1523 1523 1523 1523 1523 1523 1523 1522 1521 1521 1521 1520 1518 1517 1514 1513 1513 1512 1508 1507 1507 1506 1505 1505 1505 1504 1503 1503 1503 1502 1502 1502 1502
1514 1515 1516 1516 1516 1516 1516 1516 1516 1516 1516 1516 1515 1514 1514 1513 1512 1510 1509 1507 1503 1503 1503 1500 1498 1497 1495 1495 1495 1495 1494 1494 1493 1493 1492 1492 1493 1493
1510 1510 1510 1510 1510 1510 1510 1509 1509 1509 1509 1508 1507 1507 1506 1505 1504 1503 1501 1499 1496 1494 1494 1493 1490 1488 1484 1483 1485 1485 1484 1483 1483 1482 1482 1482 1483 1482
1505 1505 1505 1504 1504 1504 1503 1503 1503 1502 1501 1500 1499 1498 1498 1497 1496 1495 1494 1492 1489 1486 1487 1485 1482 1480 1478 1473 1473 1474 1474 1473 1472 1471 1471 1472 1472 1472
1502 1501 1501 1500 1500 1499 1498 1498 1497 1496 1495 1493 1492 1491 1489 1489 1488 1486 1485 1483 1481 1479 1478 1477 1474 1472 1469 1465 1463 1463 1463 1462 1461 1460 1460 1460 1460 1460
1499 1498 1497 1497 1496 1495 1494 1493 1492 1490 1489 1487 1486 1485 1483 1481 1480 1478 1477 1475 1473 1471 1470 1468 1466 1463 1461 1457 1454 1453 1452 1450 1450 1449 1449 1448 1448 1448
1497 1496 1495 1494 1493 1491 1490 1489 1488 1486 1484 1482 1480 1479 1477 1475 1473 1471 1469 1466 1464 1462 1461 1460 1457 1455 1451 1448 1446 1442 1442 1440 1439 1439 1438 1436 1436 1436
1495 1493 1492 1490 1489 1488 1486 1485 1483 1481 1479 1477 1475 1472 1470 1468 1467 1465 1462 1459 1456 1453 1451 1450 1449 1446 1442 1440 1436 1433 1432 1430 1430 1429 1427 1425 1424 1424
1492 1490 1488 1487 1485 1483 1481 1479 1478 1476 1474 1471 1469 1467 1464 1462 1459 1457 1455 1453 1449 1446 1444 1441 1439 1436 1432 1429 1428 1425 1422 1421 1419 1418 1417 1414 1412 1412
1489 1487 1485 1483 1481 1479 1477 1475 1473 1471 1469 1466 1464 1461 1459 1456 1454 1451 1448 1446 1443 1440 1437 1435 1432 1429 1425 1420 1417 1418 1414 1411 1409 1407 1405 1404 1401 1401
1486 1484 1482 1480 1478 1476 1474 1471 1469 1467 1464 1462 1459 1456 1454 1451 1448 1445 1442 1439 1436 1432 1429 1427 1425 1422 1419 1414 1409 1406 1406 1403 1400 1397 1395 1393 1391 1391
1484 1482 1480 1477 1475 1473 1470 1468 1465 1462 1460 1457 1454 1451 1448 1445 1442 1439 1436 1432 1429 1425 1421 1418 1416 1414 1410 1406 1401 1395 1395 1394 1391 1388 1386 1384 1382 1381
1482 1479 1477 1475 1472 1469 1467 1464 1461 1458 1454 1451 1448 1445 1442 1439 1436 1432 1429 1426 1422 1418 1414 1410 1408 1405 1402 1398 1393 1388 1385 1383 1381 1379 1377 1376 1374 1372
1480 1477 1474 1471 1469 1466 1462 1459 1456 1452 1449 1446 1442 1439 1436 1432 1429 1426 1422 1419 1415 1411 1407 1403 1400 1397 1394 1391 1386 1381 1378 1375 1372 1370 1368 1367 1366 1364